[[{"header":{"parameterUnit":"m.s-1","parameterCategory":1,"la1":30.2991,"la2":30.254,"lo1":-89.0895,"lo2":-89.0444,"dy":0.0017,"dx":0.0017,"nx":28,"ny":28,"refTime":"2023-09-22T09:00:00:Z","depth":0,"parameterNumber":2,"parameterNumberName":"U-component_of_WINDS"},"data":[0,0,0,0,0,0,0,0,0,0,0,0,0,0,0,0,0,0,0,0,0,0,0,0,0,0,0,0,0,0,0,0,0,0,0,0,0,0,0,0,0,0,0,0,0,0,0,0,0,0,0,0,0,0,0,0,0,0,0.6538,0.6539,0,0.6657,0.6659,0.666,0.6722,0.6722,0.6722,0.6723,0.6845,0.6848,0.6851,0,0,0,0,0,0,0,0,0,0,0,0,0,0.6362,0.6364,0.6538,0.6539,0.6541,0.6657,0.6659,0.666,0.6722,0.6722,0.6722,0.6723,0.6844,0.6848,0.6852,0,0,0,0,0,0,0,0,0,0,0,0,0,0.6455,0.6365,0.6537,0.6586,0.6591,0.6657,0.6659,0.6661,0.6722,0.6722,0.6722,0.6723,0.6843,0.6847,0.6852,0.6879,0,0,0.6867,0.6869,0,0,0,0,0,0,0,0,0.645,0.6462,0.6577,0.6582,0.6589,0.6675,0.6642,0.6734,0.6722,0.6672,0.6723,0.6723,0.6788,0.6798,0.682,0.6885,0.689,0.6867,0.687,0.6872,0.6873,0,0,0,0,0,0,0,0.6443,0.6457,0.6585,0.6579,0.6586,0.6601,0.6614,0.6659,0.6728,0.6677,0.6682,0.6695,0.6792,0.6815,0.6823,0.6892,0.6867,0.6871,0.6874,0.6876,0.6984,0.6984,0,0,0,0,0,0,0.6429,0.6451,0.6581,0.6589,0.6518,0.6604,0.6619,0.6647,0.6728,0.674,0.6695,0.6697,0.6807,0.6817,0.6828,0.6864,0.6872,0.6877,0.6879,0.6984,0.6984,0.6984,0,0,0,0,0,0,0.6425,0.644,0.6576,0.6521,0.654,0.6607,0.6638,0.6649,0.6673,0.6741,0.6754,0.6706,0.6807,0.6821,0.6866,0.6869,0.6879,0.6883,0.6984,0.6984,0.6984,0.6937,0,0,0,0,0,0,0.642,0.6438,0.645,0.6521,0.6542,0.6612,0.6638,0.6652,0.6681,0.6686,0.6755,0.6767,0.6808,0.6858,0.687,0.6876,0.6887,0.6984,0.6984,0.6984,0.6938,0.6935,0.6932,0,0,0,0,0,0.6413,0.6432,0.645,0.6465,0.6558,0.6613,0.6625,0.6672,0.6681,0.6693,0.6736,0.6765,0.6866,0.6862,0.6876,0.6883,0.6984,0.6984,0.6984,0.6939,0.6936,0.6932,0,0,0,0,0,0,0.636,0.6442,0.6463,0.6505,0.6551,0.6623,0.6639,0.6667,0.6711,0.6713,0.677,0.6785,0.6824,0.6859,0.6852,0.6913,0.6928,0.6931,0.6889,0.6886,0.6883,0.6874,0.6891,0,0,0,0,0,0.6353,0.639,0.646,0.6491,0.6513,0.6572,0.6597,0.6629,0.668,0.6699,0.6746,0.6794,0.6836,0.6863,0.6906,0.6943,0.6959,0.6955,0.6952,0.6949,0.6951,0.6972,0.6971,0.6984,0.6984,0.6984,0,0,0.6339,0.6389,0.6409,0.6481,0.6521,0.6558,0.6588,0.6626,0.6654,0.6705,0.675,0.6786,0.6842,0.6883,0.6903,0.6912,0.6951,0.6949,0.6946,0.695,0.6972,0.697,0.6969,0.6984,0.6984,0.6984,0,0,0.6333,0.6374,0.6404,0.6442,0.6501,0.654,0.6547,0.6614,0.664,0.6686,0.6724,0.6758,0.6831,0.6869,0.6898,0.6904,0.6931,0.6916,0.6901,0.6921,0.692,0.6919,0.6921,0.692,0.6918,0.6918,0.6918,0,0.6308,0.6366,0.6415,0.6451,0.6482,0.6529,0.6559,0.6594,0.6664,0.6683,0.6693,0.6783,0.6825,0.6874,0.6876,0.6898,0.6907,0.6909,0.6916,0.6916,0.6916,0.6918,0.6918,0.6916,0.6916,0.6916,0.6916,0,0.6332,0.6371,0.6388,0.6454,0.6486,0.6519,0.6573,0.6599,0.6628,0.6665,0.6711,0.6762,0.6815,0.6829,0.6858,0.6883,0.6887,0.6905,0.6921,0.6911,0.6914,0.6916,0.6912,0.6913,0.6914,0.6914,0,0,0.6297,0.6388,0.6394,0.6424,0.6491,0.6523,0.6557,0.6609,0.663,0.6676,0.6706,0.6765,0.6782,0.6815,0.6848,0.6866,0.6866,0.6882,0.6884,0.6877,0.6895,0.688,0.688,0.6885,0.6885,0.6885,0.689,0,0.63,0.6364,0.6408,0.6455,0.6491,0.6535,0.6565,0.6609,0.6645,0.6681,0.672,0.6761,0.6781,0.68,0.682,0.6862,0.687,0.6862,0.6912,0.6914,0.6897,0.6882,0.6867,0.6869,0.6892,0.6892,0.6892,0,0.6312,0.6357,0.6406,0.6469,0.6486,0.6512,0.6562,0.6596,0.6647,0.6671,0.6706,0.674,0.6778,0.679,0.6842,0.6835,0.6858,0.6882,0.6883,0.6889,0.6902,0.6888,0.6871,0.6871,0.6894,0.6894,0.6894,0,0.6281,0.6352,0.6391,0.6415,0.649,0.6507,0.6538,0.6589,0.6617,0.6661,0.668,0.6727,0.6753,0.6789,0.6835,0.684,0.6882,0.6898,0.6903,0.6901,0.691,0.6908,0.6896,0.6925,0.6925,0.6924,0.6924,0,0.6279,0.6308,0.6378,0.6402,0.6434,0.6485,0.6516,0.6551,0.6596,0.6627,0.6668,0.6696,0.6755,0.679,0.6826,0.6862,0.6874,0.6894,0.6904,0.6891,0.6888,0.6906,0.6907,0.6925,0.6925,0.6925,0.6925,0,0.625,0.6298,0.6343,0.6409,0.6426,0.6447,0.6504,0.6528,0.6565,0.6603,0.6615,0.6674,0.6717,0.6766,0.6825,0.6849,0.6883,0.6897,0.6866,0.6871,0.6872,0.6871,0.6871,0.6874,0.69,0.69,0.69,0,0.6246,0.6269,0.6337,0.636,0.6391,0.6428,0.6456,0.6507,0.6534,0.6593,0.661,0.6656,0.6696,0.6762,0.681,0.6855,0.687,0.6867,0.6877,0.6863,0.6869,0.6867,0.6869,0.6864,0.6863,0.6863,0.6862,0,0.6234,0.6256,0.6295,0.6342,0.6375,0.6414,0.6456,0.6472,0.6531,0.656,0.6604,0.6634,0.6694,0.6739,0.679,0.6823,0.6852,0.6858,0.6862,0.6849,0.683,0.6839,0.6857,0.6858,0.6859,0.6859,0.6859,0.6859,0.6217,0.6239,0.6289,0.6331,0.6367,0.6404,0.643,0.647,0.6508,0.656,0.6587,0.6631,0.668,0.6751,0.6782,0.6817,0.6826,0.6831,0.6833,0.6833,0.6829,0.6824,0.6826,0.6826,0.6827,0.6827,0.6827,0,0.6206,0.6241,0.6279,0.6334,0.6367,0.6391,0.6438,0.6463,0.6501,0.6544,0.6581,0.6631,0.6675,0.6725,0.6771,0.6789,0.6803,0.68,0.6799,0.6805,0.6818,0.681,0.6787,0.6787,0.6787,0.6787,0.6787,0.6787,0.6204,0.6242,0.627,0.6325,0.636,0.6402,0.6426,0.6461,0.6495,0.6549,0.6585,0.6617,0.6663,0.6712,0.6753,0.6766,0.6781,0.6773,0.679,0.6801,0.6805,0.6808,0.6801,0.6776,0.6776,0.6775,0.6775,0.6775]},{"header":{"parameterUnit":"m.s-1","parameterCategory":1,"la1":30.2991,"la2":30.254,"lo1":-89.0895,"lo2":-89.0444,"dy":0.0017,"dx":0.0017,"nx":28,"ny":28,"refTime":"2023-09-22T09:00:00:Z","depth":0,"parameterNumber":3,"parameterNumberName":"V-component_of_WINDS"},"data":[0,0,0,0,0,0,0,0,0,0,0,0,0,0,0,0,0,0,0,0,0,0,0,0,0,0,0,0,0,0,0,0,0,0,0,0,0,0,0,0,0,0,0,0,0,0,0,0,0,0,0,0,0,0,0,0,0,0,3.3496,3.3495,0,3.3407,3.3406,3.3405,3.335,3.3349,3.3349,3.3349,3.3252,3.325,3.3247,0,0,0,0,0,0,0,0,0,0,0,0,0,3.361,3.3608,3.3496,3.3495,3.3494,3.3408,3.3406,3.3405,3.335,3.3349,3.3349,3.3348,3.3253,3.325,3.3247,0,0,0,0,0,0,0,0,0,0,0,0,0,3.3545,3.3607,3.3496,3.3456,3.3451,3.3408,3.3406,3.3405,3.335,3.3349,3.3349,3.3348,3.3253,3.325,3.3247,3.3235,0,0,3.3236,3.3235,0,0,0,0,0,0,0,0,3.3548,3.354,3.3463,3.3458,3.3453,3.3389,3.3411,3.3348,3.335,3.3388,3.3349,3.3348,3.3297,3.329,3.3275,3.323,3.3226,3.3236,3.3234,3.3232,3.3231,0,0,0,0,0,0,0,3.3553,3.3544,3.3461,3.3461,3.3456,3.344,3.343,3.3399,3.3346,3.3385,3.338,3.3371,3.3295,3.3278,3.3272,3.3225,3.3236,3.3233,3.3231,3.3229,3.3164,3.3165,0,0,0,0,0,0,3.3565,3.3548,3.3463,3.3458,3.3501,3.3438,3.3427,3.341,3.3346,3.3336,3.3372,3.3369,3.3284,3.3276,3.3268,3.3249,3.3232,3.3229,3.3227,3.3164,3.3164,3.3165,0,0,0,0,0,0,3.3567,3.3558,3.3467,3.3502,3.3489,3.3437,3.3418,3.3409,3.3392,3.3337,3.3326,3.3365,3.3283,3.3273,3.3244,3.3245,3.3228,3.3224,3.3164,3.3164,3.3165,3.3211,0,0,0,0,0,0,3.3571,3.3559,3.3555,3.3502,3.3488,3.3446,3.3418,3.3407,3.3387,3.3382,3.3327,3.3318,3.3282,3.3249,3.324,3.324,3.3222,3.3163,3.3164,3.3164,3.3209,3.3213,3.3216,0,0,0,0,0,3.3575,3.3571,3.3556,3.3546,3.3482,3.3446,3.3437,3.3399,3.3387,3.3382,3.3346,3.3319,3.3247,3.3247,3.3236,3.3235,3.3163,3.3164,3.3164,3.3207,3.3212,3.3216,0,0,0,0,0,0,3.3623,3.3563,3.3545,3.3524,3.3491,3.3437,3.3429,3.3405,3.3373,3.3369,3.3321,3.3309,3.3284,3.3256,3.3257,3.3219,3.3201,3.32,3.3238,3.3242,3.3246,3.3252,3.3219,0,0,0,0,0,3.3632,3.3609,3.3557,3.3543,3.3528,3.3482,3.3464,3.3438,3.34,3.3385,3.3347,3.331,3.3279,3.3259,3.3227,3.3205,3.3191,3.3199,3.3203,3.3206,3.3205,3.319,3.3192,3.3167,3.3167,3.3167,0,0,3.3648,3.3612,3.3601,3.3552,3.3523,3.3499,3.347,3.3446,3.3427,3.3381,3.3351,3.3322,3.3277,3.3252,3.3238,3.3228,3.3209,3.3207,3.321,3.3207,3.3191,3.3193,3.3195,3.3168,3.3168,3.3167,0,0,3.3665,3.3637,3.3622,3.3594,3.3552,3.3521,3.3518,3.3467,3.3447,3.3417,3.3382,3.3357,3.3305,3.3274,3.3252,3.3258,3.3231,3.3249,3.3267,3.3253,3.3255,3.3257,3.3257,3.3259,3.3248,3.3249,3.3249,0,3.369,3.3655,3.3617,3.3595,3.3574,3.3534,3.3517,3.3491,3.3439,3.3424,3.3414,3.3347,3.3314,3.328,3.3282,3.3266,3.3258,3.3254,3.3259,3.326,3.326,3.326,3.3261,3.3251,3.3251,3.325,3.325,0,3.3687,3.3663,3.3656,3.3609,3.3587,3.3568,3.3525,3.3507,3.3482,3.3452,3.3421,3.3381,3.334,3.333,3.3305,3.3292,3.3286,3.3268,3.3249,3.3266,3.3265,3.3265,3.3254,3.3253,3.3253,3.3252,0,0,3.3731,3.3665,3.3662,3.364,3.3591,3.357,3.3548,3.3511,3.3495,3.3461,3.344,3.3397,3.338,3.3355,3.3326,3.3314,3.332,3.3296,3.3295,3.3301,3.3301,3.3314,3.3315,3.3303,3.3302,3.3302,3.3304,0,3.3739,3.3701,3.3666,3.3639,3.3615,3.3577,3.3558,3.3524,3.3496,3.3469,3.3437,3.3407,3.3387,3.3371,3.3358,3.3322,3.3319,3.3322,3.328,3.3279,3.3291,3.3315,3.3328,3.3332,3.3304,3.3304,3.3304,0,3.3744,3.3714,3.3685,3.3638,3.3627,3.361,3.3572,3.3549,3.3509,3.3489,3.3462,3.3432,3.3405,3.339,3.3351,3.3354,3.3335,3.3315,3.3314,3.3307,3.3291,3.3307,3.3332,3.3332,3.3303,3.3303,3.3303,0,3.3777,3.3729,3.3705,3.3688,3.3633,3.3622,3.3598,3.3558,3.3537,3.3504,3.3489,3.3452,3.3431,3.3402,3.3362,3.3356,3.3327,3.3309,3.3307,3.3308,3.3302,3.3302,3.3323,3.3293,3.3293,3.3293,3.3293,0,3.379,3.3773,3.372,3.3705,3.3685,3.3644,3.3625,3.3597,3.3562,3.354,3.3504,3.3483,3.3433,3.3406,3.3374,3.3346,3.3337,3.3318,3.3309,3.332,3.3323,3.3306,3.3304,3.3293,3.3293,3.3293,3.3293,0,3.3822,3.3786,3.3758,3.3708,3.3695,3.3683,3.3639,3.3622,3.3592,3.3564,3.3555,3.3507,3.3473,3.3431,3.3383,3.3362,3.3336,3.3324,3.335,3.3345,3.3345,3.3345,3.3354,3.3352,3.3325,3.3325,3.3326,0,3.3832,3.3819,3.3769,3.3752,3.373,3.3704,3.3683,3.3643,3.3622,3.3576,3.3564,3.3528,3.3497,3.3444,3.3403,3.3366,3.3352,3.3357,3.3345,3.3357,3.335,3.335,3.3348,3.336,3.336,3.3361,3.3361,0,3.3852,3.3835,3.3808,3.3775,3.3751,3.3722,3.3691,3.3679,3.3632,3.361,3.3576,3.3553,3.3504,3.3468,3.3426,3.3398,3.3371,3.3366,3.3363,3.3373,3.3388,3.3378,3.3357,3.3365,3.3365,3.3364,3.3364,3.3364,3.3872,3.3859,3.3822,3.3792,3.3765,3.3737,3.3719,3.3688,3.3659,3.3619,3.3596,3.3562,3.3522,3.3463,3.3436,3.3408,3.3398,3.3394,3.3393,3.3392,3.3395,3.3395,3.34,3.34,3.3399,3.3399,3.3399,0,3.389,3.3865,3.3838,3.3797,3.3773,3.3753,3.3718,3.3699,3.367,3.3636,3.3607,3.3567,3.3532,3.3489,3.345,3.3436,3.3422,3.3427,3.3426,3.342,3.3407,3.3412,3.3438,3.3438,3.3438,3.3438,3.3438,3.3438,3.3896,3.3872,3.385,3.3811,3.3785,3.3754,3.3735,3.3708,3.3681,3.3639,3.3611,3.3584,3.3545,3.3504,3.347,3.3458,3.3444,3.3453,3.3437,3.3425,3.3421,3.3418,3.3423,3.345,3.345,3.3452,3.3452,3.3452]}]]